x

New Dungeness - 17 Nm Ne Of Port Angeles, Wa (46088) Wave Buoy

10:50 - Tue 26th Jul 2016 All times are PDT. -7 hours from GMT.

  • Sig Wave height 2.0ft
  • Swell Direction
  • Peak Period 3s
  • Average Period 3s
  • Wind
    16mph, 20mph gusts
  • Sea Temp 52°f
  • Luft Temp 54°f
  • Sea Pressure 1018.3mb
  • New Dungeness - 17 Nm Ne Of Port Angeles, Wa
  • New Dungeness - 17 Nm Ne Of Port Angeles, Wa

More Historic Weather Station data

Upgrade to MSW Pro to gain access to the past 30 days of data for over 8000 Wavebouys and Weather Stations around the globe.

Join Pro

Comparision Forecast

View Surf forecast
   
Di 07/26 10:50 2ft 3s 3s 16 20 mph 1018.3mb 52f 54f
10:20 2.5ft 4s 3s 18 20 mph 1018.4mb 52f 54f
9:50 2.5ft 4s 3s 18 20 mph 1018.4mb 52f 55f
9:20 2.5ft 4s 3s 20 22 mph 1018.1mb 52f 55f
8:50 2.5ft 4s 3s 22 25 mph 1017.7mb 52f 54f
8:20 2.5ft 4s 3s 22 25 mph 1017.6mb 53f 54f
7:50 3ft 4s 4s 22 25 mph 1017.5mb 53f 55f
7:20 2.5ft 4s 4s 20 25 mph 1017.6mb 53f 55f
6:50 2.5ft 4s 4s 22 25 mph 1017.6mb 53f 55f
6:20 2.5ft 4s 4s 20 22 mph 1017.9mb 54f 55f
5:50 2ft 4s 4s 20 22 mph 1018.1mb 53f 56f
5:20 2ft 4s 3s 18 22 mph 1018.3mb 53f 56f
4:50 2ft 4s 3s 18 20 mph 1018.5mb 52f 57f
4:20 2ft 3s 3s 18 20 mph 1018.8mb 52f 56f
3:50 2ft 4s 3s 18 20 mph 1019mb 52f 56f
3:20 1.6ft 4s 3s 16 18 mph 1019.2mb 52f 56f
2:50 1.6ft 4s 4s 16 18 mph 1019.6mb 52f 56f
2:20 1.6ft 3s 4s 16 18 mph 1019.9mb 52f 55f
1:50 1.6ft 3s 4s 13 16 mph 1020.1mb 53f 55f
1:20 1.6ft 4s 4s 13 16 mph 1020.2mb 53f 55f
12:50 1.6ft 4s 4s 16 18 mph 1020.2mb 52f 55f
12:20 1.6ft 4s 4s 16 18 mph 1020.3mb 52f 55f
11:50 1.6ft 3s 3s 16 18 mph 1020.3mb 52f 55f
11:20 1.6ft 4s 3s 16 20 mph 1020.3mb 52f 55f
10:50 2ft 4s 3s 16 18 mph 1020.2mb 52f 55f
10:20 2ft 4s 4s 16 20 mph 1020.1mb 52f 54f
9:50 2.5ft 4s 4s 16 18 mph 1020mb 52f 55f
9:20 2.5ft 4s 4s 13 18 mph 1019.9mb 52f 55f
8:50 2.5ft 5s 4s 13 18 mph 1019.9mb 52f 55f
8:20 3.5ft 4s 4s 16 29 mph 1019.6mb 52f 56f
7:50 3.5ft 5s 4s 16 25 mph 1019.2mb 52f 55f
7:20 4ft 5s 4s 18 22 mph 1019.1mb 52f 55f
6:50 4ft 5s 5s 18 22 mph 1018.7mb 52f 55f
6:20 3.5ft 5s 4s 20 22 mph 1018.5mb 51f 55f
5:50 4ft 6s 5s 20 25 mph 1018.3mb 52f 55f
5:20 4ft 6s 5s 22 25 mph 1018mb 51f 55f
4:50 4ft 6s 5s 25 29 mph 1017.8mb 51f 55f
4:20 4ft 6s 5s 20 25 mph 1017.7mb 52f 55f
3:50 4.5ft 6s 5s 22 27 mph 1017.5mb 52f 55f
3:20 4.5ft 6s 5s 25 31 mph 1017.2mb 52f 55f
2:50 3.5ft 6s 5s 25 29 mph 1017.1mb 51f 55f
2:20 3.5ft 6s 5s 27 34 mph 1016.9mb 51f 55f
1:50 3.5ft 6s 5s 29 34 mph 1016.9mb 52f 56f
1:20 3.5ft 5s 4s 27 34 mph 1016.7mb 51f 56f
12:50 3.5ft 5s 4s 27 34 mph 1016.5mb 52f 56f
12:20 3.5ft 5s 4s 29 34 mph 1016.1mb 51f 56f
Mo 07/25 11:50 3.5ft 5s 4s 29 36 mph 1016mb 51f 56f
11:20 3ft 4s 4s 27 31 mph 1016.1mb 51f 56f
10:50 3.5ft 4s 4s 29 34 mph 1016.1mb 51f 56f
10:20 3.5ft 4s 4s 29 34 mph 1016.1mb 51f 57f
9:50 3.5ft 4s 4s 29 34 mph 1015.9mb 51f 57f
9:20 3.5ft 4s 4s 25 31 mph 1015.8mb 52f 57f
8:50 3.5ft 4s 4s 25 29 mph 1015.4mb 51f 58f
8:20 2.5ft 4s 3s 25 29 mph 1015.4mb 52f 58f
7:50 3ft 4s 4s 18 20 mph 1015.7mb 52f 57f
7:20 3.5ft 4s 4s 20 22 mph 1015.5mb 52f 56f
6:50 3.5ft 5s 4s 25 27 mph 1015.4mb 52f 56f
6:20 3ft 4s 4s 25 27 mph 1015.5mb 52f 56f
5:50 2.5ft 4s 3s 25 29 mph 1015.7mb 52f 56f
5:20 2.5ft 4s 3s 16 18 mph 1016.5mb 53f 56f
4:50 2ft 4s 3s 20 22 mph 1016.6mb 53f 56f
4:20 2ft 4s 4s 18 20 mph 1016.8mb 52f 56f
3:50 2.5ft 5s 4s 16 18 mph 1017.1mb 52f 56f
3:20 1.6ft 4s 4s 18 20 mph 1017.3mb 52f 56f
2:50 1.3ft 4s 4s 13 16 mph 1017.5mb 53f 56f
2:20 1.3ft 4s 3s 11 13 mph 1017.7mb 53f 56f
1:50 1ft 4s 3s 11 13 mph 1017.8mb 53f 56f
1:20 1ft 4s 3s 11 13 mph 1017.8mb 53f 55f
12:50 1ft 4s 4s 9 11 mph 1018mb 53f 55f
12:20 1.3ft 3s 4s 11 13 mph 1018mb 52f 55f
11:20 1ft 3s 3s 11 13 mph 1017.9mb 52f 54f
10:50 1.3ft 3s 3s 11 13 mph 1017.8mb 52f 54f
10:20 1.3ft 3s 3s 13 16 mph 1017.7mb 52f 54f
9:50 1.3ft 3s 3s 13 16 mph 1017.6mb 52f 54f
9:20 1.3ft 3s 3s 13 16 mph 1017.5mb 52f 53f
8:50 1ft 3s 3s 13 16 mph 1017.5mb 52f 53f
8:20 1ft 3s 3s 13 16 mph 1017.3mb 51f 53f
7:50 1ft 3s 3s 11 13 mph 1017.2mb 51f 53f
7:20 1ft 3s 3s 13
mph
1017mb 51f 53f
6:50 1.3ft 3s 3s 13
mph
1016.9mb 51f 53f
6:20 1.3ft 3s 3s 13 16 mph 1016.7mb 51f 53f
5:50 1.6ft 3s 4s 9
mph
1016.7mb 51f 53f
5:20 1.6ft 4s 4s 9
mph
1016.5mb 51f 54f
4:50 1.6ft 4s 4s 9
mph
1016.3mb 52f 54f
4:20 1.6ft 4s 4s 9 11 mph 1016.3mb 52f 54f
3:50 1.6ft 4s 4s 11
mph
1016.2mb 52f 54f
3:20 1.6ft 4s 4s 11 13 mph 1016mb 52f 54f
2:50 1.3ft 4s 4s 9 11 mph 1016mb 52f 54f
2:20 1.3ft 5s 4s 13 18 mph 1015.7mb 51f 54f
1:50 1ft 4s 4s 11 13 mph 1015.8mb 51f 54f
1:20 1.3ft 4s 4s 13 16 mph 1015.8mb 52f 54f
12:50 1.3ft 4s 4s 13 16 mph 1015.8mb 52f 54f
12:20 1.3ft 4s 3s 11 13 mph 1015.7mb 52f 55f
So 07/24 11:50 1.3ft 4s 3s 11 13 mph 1015.8mb 52f 56f
11:20 1.6ft 4s 3s 13
mph
1015.8mb 52f 57f
10:50 1.6ft 3s 3s 20 22 mph 1015.5mb 52f 59f
10:20 1.6ft 3s 3s 20 22 mph 1015.7mb 52f 57f
9:50 1.6ft 3s 3s 18 20 mph 1015.9mb 52f 56f
9:20 1.6ft 3s 3s 18 20 mph 1015.7mb 52f 56f
8:50 1.3ft 3s 3s 20 22 mph 1015.7mb 52f 55f
8:20 1.3ft 3s 3s 20 22 mph 1015.7mb 52f 56f
7:50 1.3ft 3s 3s 20 22 mph 1015.9mb 52f 56f
7:20 1.3ft 3s 3s 18 20 mph 1015.9mb 53f 56f
6:50 1.6ft 3s 3s 18 20 mph 1016mb 52f 56f
6:20 2ft 3s 3s 16 18 mph 1016.4mb 53f 56f
5:50 2ft 3s 3s 16 18 mph 1016.7mb 53f 56f
4:50 1.3ft 3s 3s 13 16 mph 1017.5mb 52f 55f
4:20 0.7ft  -  3s 16
mph
1017.7mb 53f 54f
3:50 0.7ft  -  3s 13
mph
1017.9mb 54f 54f
3:20 0.3ft  -  4s 11 13 mph 1018.2mb 54f 55f
2:50 0.3ft  -  3s 7
mph
1018.5mb 54f 55f
2:20 0.3ft  -  3s 7 9 mph 1018.7mb 54f 55f
1:50 0.3ft  -  3s 7 9 mph 1018.9mb 54f 54f
1:20 0.7ft  -  3s 7 9 mph 1019.2mb 54f 55f
12:50 0.7ft  -  4s 4 7 mph 1019.3mb 54f 55f
12:20 0.7ft  -  4s 4 7 mph 1019.5mb 53f 55f
11:50 0.7ft  -  4s 2
mph
1019.7mb 54f 55f
11:20 0.3ft  -  4s 2 4 mph 1019.9mb 53f 55f
10:50 0.3ft  -  4s 4
mph
1019.8mb 53f 54f
10:20 0.3ft  -  4s 7
mph
1020mb 53f 54f
9:50 0.3ft  -  3s 4
mph
1020.2mb 53f 53f
9:20 0.3ft  -  3s 4
mph
1020.4mb 52f 53f
8:50 0.3ft  -  3s 4
mph
1020.3mb 52f 53f
8:20 0.3ft  -  3s 2
mph
1020.1mb 52f 53f
7:50 0.3ft  -  3s  -  2 mph 1020.2mb 52f 53f
7:20 0.7ft  -  3s 4 7 mph 1020mb 52f 52f
6:50 0.7ft  -  3s 9
mph
1020mb 52f 52f
6:20 0.7ft  -  3s 9 11 mph 1020mb 51f 52f
5:50 1ft 3s 3s 11 13 mph 1020mb 52f 52f
5:20 1.3ft 3s 3s 11 13 mph 1019.9mb 52f 53f
4:50 1.6ft 3s 3s 13 16 mph 1019.9mb 52f 53f
4:20 1.6ft 4s 3s 16 18 mph 1020.1mb 52f 53f
3:50 1.3ft 4s 3s 16 20 mph 1020.3mb 52f 53f
3:20 1.3ft 4s 4s 16 18 mph 1020.5mb 52f 53f
2:50 1.6ft 4s 3s 16 18 mph 1020.5mb 52f 54f
2:20 1.3ft 4s 4s 16 18 mph 1020.6mb 52f 54f
1:50 1.3ft 4s 4s 16 20 mph 1020.7mb 52f 54f
1:20 1.3ft 4s 4s 16 20 mph 1021mb 52f 55f
12:50 1.3ft 4s 4s 16 18 mph 1021.2mb 52f 55f
12:20 1.3ft 4s 3s 16 18 mph 1021.3mb 52f 55f
Sa 07/23 11:50 1.3ft 3s 3s 16 20 mph 1021.5mb 52f 55f
11:20 1.3ft 3s 3s 16 18 mph 1021.6mb 52f 54f
10:50 1.3ft 3s 3s 16 20 mph 1021.8mb 52f 55f
10:20 1.3ft 3s 3s 18 20 mph 1022mb 52f 55f
9:50 1.3ft 3s 3s 18 20 mph 1022mb 52f 55f
9:20 1.3ft 3s 3s 16 18 mph 1022.1mb 52f 55f
8:50 1.3ft 2s 3s 16 18 mph 1022mb 52f 55f
8:20 1.3ft 3s 3s 16 18 mph 1022.1mb 52f 55f
7:50 1ft 3s 3s 16 18 mph 1022.2mb 52f 55f
7:20 1ft 3s 3s 18 20 mph 1022.2mb 53f 56f
6:50 1.3ft 3s 3s 16 18 mph 1022.3mb 53f 56f
6:20 1.6ft 3s 3s 13 16 mph 1022.6mb 53f 56f
5:50 1.6ft 3s 3s 13 16 mph 1022.8mb 53f 56f
5:20 1.6ft 3s 3s 11 13 mph 1023.1mb 53f 56f
4:50 2ft 3s 3s 13
mph
1023.4mb 53f 55f
4:20 1.6ft 3s 3s 11 13 mph 1023.7mb 53f 55f
3:50 1.6ft 4s 3s 13 16 mph 1023.9mb 54f 56f
3:20 1.3ft 4s 4s 13 16 mph 1024mb 53f 58f
2:50 1.3ft 4s 3s 11 13 mph 1024.1mb 53f 57f
2:20 1.3ft 4s 4s 9 11 mph 1024.2mb 53f 56f
1:50 1ft 4s 4s 9 11 mph 1024mb 53f 56f
1:20 1ft 5s 4s 11
mph
1024.1mb 52f 56f
12:50 1ft 5s 4s 9 11 mph 1024.1mb 53f 56f
12:20 1ft 5s 4s 11 13 mph 1024.1mb 52f 56f
11:50 1ft 4s 4s 11 13 mph 1024.2mb 52f 56f
11:20 1ft 4s 4s 11 13 mph 1024.3mb 52f 55f
10:50 1ft 4s 3s 13 16 mph 1024.3mb 52f 56f
10:20 1ft 3s 3s 11 13 mph 1024.3mb 52f 55f
9:50 1.3ft 4s 3s 13 16 mph 1023.9mb 52f 55f
9:20 1.3ft 3s 3s 13 16 mph 1023.8mb 52f 55f
8:50 1.3ft 3s 3s 13 16 mph 1023.6mb 52f 55f
8:20 1.3ft 3s  -  16 18 mph 1023.4mb 52f 55f
7:50 1.3ft 3s 3s 18 22 mph 1023.3mb 52f 55f
7:20 1.3ft 3s 3s 18 20 mph 1023.2mb 52f 55f